Regional Weather Roundup
Issued by NWS

Home | Current Version | Previous Version | Text Only | Print | Product List | Glossary On
Versions: 1 2 3 4 5 6 7 8 9 10 11 12 13 14 15 16 17 18 19 20 21 22 23 24 25 26 27 28 29 30 31 32 33 34 35 36 37 38 39 40 41 42 43 44 45 46 47 48 49 50
000
ASUS43 KDTX 061701
RWRMI
MICHIGAN HOURLY REGIONAL WEATHER ROUNDUP
NATIONAL WEATHER SERVICE DETROIT/PONTIAC MI
1200 PM EST SAT FEB 06 2016

NOTE: "FAIR" INDICATES FEW OR NO CLOUDS BELOW 12,000 FEET WITH NO
SIGNIFICANT WEATHER AND/OR OBSTRUCTION TO VISIBILITY.

MIZ047>049-052>055-059>063-066>070-074>076-081>083-061800-
SOUTHEAST LOWER MICHIGAN

CITY           SKY/WX    TMP DP  RH WIND       PRES   REMARKS
ADRIAN         SUNNY     38  24  57 W12       30.27F WCI  30
ALMA           SUNNY     34  25  68 SW14G21   30.18F WCI  25
ANN ARBOR      SUNNY     34  19  54 SW16G23   30.24F WCI  24
BAD AXE        CLOUDY    33  26  75 SW12G18   30.17F WCI  24
CARO           MOSUNNY   35  26  70 SW14G21   30.18F WCI  25
DETROIT CITY   CLOUDY    36  20  52 SW10      30.25F WCI  28
DETROIT        MOSUNNY   37  17  44 SW12      30.26F WCI  29
FLINT          SUNNY     37  20  50 SW15      30.22F WCI  28
GROSSE ILE     SUNNY     36  19  51 SW10      30.25F WCI  28
HILLSDALE      SUNNY     31  23  71 SW10      30.23F WCI  23
HOWELL         PTSUNNY   34  20  56 SW13G18   30.22F WCI  25

CITY           SKY/WX    TMP DP  RH WIND       PRES   REMARKS
JACKSON        SUNNY     34  20  56 SW17      30.23F WCI  23
LAMBERTVILLE   SUNNY     35  23  62 W10       30.28F WCI  27
LANSING        PTSUNNY   33  22  63 SW17G23   30.23F WCI  22
LAPEER         CLOUDY    33  22  64 W9        30.20F WCI  26
MASON          CLOUDY    33  23  67 SW8       30.23S WCI  26
MONROE         SUNNY     35  22  60 W13       30.27F WCI  26
MT. CLEMENS    PTSUNNY   35  24  62 S10       30.22F WCI  28
PONTIAC        PTSUNNY   34  20  56 S9        30.21F WCI  27
PORT HOPE        N/A     32  25  75 SW12G22   30.14F WCI  23
PORT HURON     CLOUDY    34  23  64 SW9       30.23F WCI  26
TRI CITIES     MOSUNNY   34  23  64 SW18G29   30.18F WCI  23
MIDLAND        FAIR      34  22  60 SW18      30.16F WCI  23
TROY           CLOUDY    35  24  62 S5        30.25F WCI  31
SAGINAW HB     SUNNY     34  28  80 SW17      30.18F WCI  23
$$
MIZ043>046-050>051-056>058-064>065-071>073-077>080-061800-
SOUTHWEST LOWER MICHIGAN

CITY           SKY/WX    TMP DP  RH WIND       PRES   REMARKS
BATTLE CREEK   SUNNY     32  22  66 SW10      30.23F WCI  24
BENTON HARBOR  SUNNY     34  25  69 SW14      30.26F WCI  25
BIG RAPIDS     CLOUDY    33  21  60 SW17G23   30.14S WCI  22
COLDWATER      SUNNY     32  24  73 SW13      30.25F WCI  22
FREMONT        CLOUDY    33  23  66 W13G18    30.18S WCI  24
HOLLAND        PTSUNNY   33  25  72 SW20G25   30.23F WCI  21
GRAND RAPIDS   PTSUNNY   33  26  75 SW17      30.21F WCI  22
IONIA          FAIR      33  24  70 SW18      30.20F WCI  22
KALAMAZOO      SUNNY     32  22  66 SW15      30.24F WCI  22
LUDINGTON      CLOUDY    32  26  78 W10       30.17S WCI  23
MARSHALL       SUNNY     32  22  67 SW14G23   30.23F WCI  22
MOUNT PLEASANT PTSUNNY   34  22  60 SW14G23   30.16F WCI  25
MUSKEGON       CLOUDY    35  24  64 SW17G23   30.21S WCI  25
SOUTH HAVEN    PTSUNNY   32  27  80 SW14G20   30.24F WCI  22
$$
MIZ016>042-061800-
NORTHERN LOWER MICHIGAN

CITY           SKY/WX    TMP DP  RH WIND       PRES   REMARKS
ALPENA         CLOUDY    31  22  69 W13G21    30.08F WCI  21
BEAVER ISLAND  CLOUDY    29  22  75 W15G22    30.08S WCI  18
BELLAIRE       CLOUDY    30  25  80 SW7G16    30.12F WCI  23
CADILLAC       FLURRIES  28  24  84 SW12G18   30.10S WCI  18
CHARLEVOIX     CLOUDY    30  25  80 W16G22    30.12S WCI  19
FRANKFORT      CLOUDY    30  25  80 W9G16     30.14S WCI  22
GAYLORD        CLOUDY    27  23  85 W16G22    30.06F FOG     WCI  15
GRAYLING       CLOUDY    28  24  82 W8G17     30.10S WCI  20
HARBOR SPRINGS CLOUDY    29  24  80 W10G16    30.08S WCI  20
HOUGHTON LAKE  CLOUDY    30  22  72 W12       30.11S WCI  20
MANISTEE       CLOUDY    30  21  69 W13       30.15F WCI  20
OSCODA         CLOUDY    32  22  67 SW17G29   30.11S WCI  21
PELLSTON       CLOUDY    29  22  75 W9        30.08S WCI  20
ROGERS CITY    FLURRIES  30  24  76 W14G21    30.07F WCI  20
TRAVERSE CITY  LGT SNOW  30  23  75 W12       30.12S WCI  20
$$
MIZ007>008-015-061800-
EASTERN UPPER MICHIGAN

CITY           SKY/WX    TMP DP  RH WIND       PRES   REMARKS
KINROSS        CLOUDY    27  25  93 SW10      30.03S WCI  17
MACKINAC ISLAN CLOUDY    28  24  84 W16       30.05F WCI  16
NEWBERRY       CLOUDY    26  20  79 SW10      30.03S WCI  15
S. S. MARIE    CLOUDY    28  21  75 SW13      30.01S WCI  17
$$
MIZ004>006-011>014-085-061800-
CENTRAL UPPER MICHIGAN

CITY           SKY/WX    TMP DP  RH WIND       PRES   REMARKS
MANISTIQUE     CLOUDY    30  19  64 SW7       30.06F WCI  23
ESCANABA       MOSUNNY   28  18  64 W10       30.09F WCI  19
MENOMINEE      CLOUDY    27  19  74 W8        30.11F WCI  18
SAWYER-GWINN   PTSUNNY   25  18  74 W7        30.02F WCI  17
$$
MIZ001>003-009>011-084-061800-
WESTERN UPPER MICHIGAN

CITY           SKY/WX    TMP DP  RH WIND       PRES   REMARKS
IRON MOUNTAIN  CLOUDY    26  17  68 VRB6      30.05F WCI  19
HOUGHTON       LGT SNOW  25  20  81 W13       29.99S WCI  14
COPPER HARBOR    N/A     28  23  81 N6        30.01S WCI  22
IRONWOOD       CLOUDY    27  19  74 S7        30.00S WCI  19
$$

ABBREVIATIONS USED IN REMARKS
   TC - TEMPERATURE IN CELSIUS
  WCI - WIND CHILL INDEX
   HX - HEAT INDEX
  VSB - VISIBILITY




USA.gov is the U.S. government's official web portal to all federal, state and local government web resources and services.